| time (UTC) | temp F | wind direction | speed MPH | gust MPH | rain 1hr in | rain 24hr in | rain mn in | humidity % | barometer mb |
| 20260906081543 | 83 | 217 | 1.0 | 6.0 | 0.00 | 0.00 | 0.00 | 85 | 1010.1 |
| 20260906080044 | 83 | 178 | 0.0 | 3.0 | 0.00 | 0.00 | 0.00 | 85 | 1010.2 |
| 20260906074541 | 83 | 191 | 0.0 | 1.0 | 0.00 | 0.00 | 0.00 | 85 | 1010.4 |
| 20260906073039 | 83 | 168 | 0.0 | 4.0 | 0.00 | 0.00 | 0.00 | 85 | 1010.5 |
| 20260906071537 | 83 | 203 | 0.0 | 3.0 | 0.00 | 0.00 | 0.00 | 85 | 1010.6 |
| 20260906070037 | 83 | 176 | 0.0 | 4.0 | 0.00 | 0.00 | 0.00 | 85 | 1010.7 |
| 20260906064534 | 83 | 168 | 0.0 | 3.0 | 0.00 | 0.00 | 0.00 | 85 | 1010.9 |
| 20260906063032 | 83 | 202 | 0.0 | 0.0 | 0.00 | 0.00 | 0.00 | 84 | 1011.0 |
| 20260906061535 | 83 | 223 | 0.0 | 0.0 | 0.00 | 0.00 | 0.00 | 84 | 1011.2 |
| 20260906060033 | 84 | 182 | 0.0 | 4.0 | 0.00 | 0.00 | 0.00 | 84 | 1011.2 |
| 20260906054541 | 84 | 196 | 1.0 | 5.0 | 0.00 | 0.00 | 0.00 | 84 | 1011.1 |
| 20260906053026 | 84 | 209 | 0.0 | 3.0 | 0.00 | 0.00 | 0.00 | 83 | 1011.4 |
| 20260906051523 | 84 | 198 | 0.0 | 0.0 | 0.00 | 0.00 | 0.00 | 82 | 1011.7 |
| 20260906050021 | 84 | 198 | 0.0 | 0.0 | 0.00 | 0.00 | 0.00 | 82 | 1011.8 |
| 20260906044520 | 84 | 198 | 0.0 | 0.0 | 0.00 | 0.00 | 0.00 | 82 | 1011.7 |
| 20260906043021 | 84 | 198 | 0.0 | 2.0 | 0.00 | 0.00 | 0.00 | 82 | 1011.6 |
| 20260906041519 | 85 | 198 | 0.0 | 2.0 | 0.00 | 0.00 | 0.00 | 81 | 1011.7 |
| 20260906040029 | 85 | 198 | 0.0 | 3.0 | 0.00 | 0.00 | 0.00 | 81 | 1011.6 |
| 20260906034519 | 85 | 195 | 1.0 | 5.0 | 0.00 | 0.00 | 0.00 | 81 | 1011.3 |
| 20260906033037 | 85 | 179 | 2.0 | 8.0 | 0.00 | 0.00 | 0.00 | 81 | 1011.2 |
| 20260906031516 | 85 | 150 | 2.0 | 7.0 | 0.00 | 0.00 | 0.00 | 80 | 1011.1 |
| 20260906030015 | 85 | 207 | 2.0 | 9.0 | 0.00 | 0.00 | 0.00 | 80 | 1011.1 |
| 20260906024515 | 85 | 173 | 2.0 | 10.0 | 0.00 | 0.00 | 0.00 | 80 | 1011.1 |
| 20260906023015 | 86 | 159 | 2.0 | 10.0 | 0.00 | 0.00 | 0.00 | 79 | 1010.6 |
| 20260906021514 | 86 | 161 | 3.0 | 8.0 | 0.00 | 0.00 | 0.00 | 79 | 1010.6 |
| 20260906020012 | 86 | 179 | 5.0 | 10.0 | 0.00 | 0.00 | 0.00 | 79 | 1010.2 |
| 20260906014512 | 86 | 134 | 5.0 | 13.0 | 0.00 | 0.00 | 0.00 | 78 | 1010.1 |
| 20260906013122 | 86 | 161 | 5.0 | 11.0 | 0.00 | 0.00 | 0.00 | 78 | 1009.9 |
| 20260906011515 | 86 | 159 | 6.0 | 15.0 | 0.00 | 0.00 | 0.00 | 77 | 1009.9 |
| 20260906010014 | 87 | 168 | 5.0 | 14.0 | 0.00 | 0.00 | 0.00 | 77 | 1009.7 |
| 20260906004510 | 87 | 134 | 9.0 | 16.0 | 0.00 | 0.00 | 0.00 | 76 | 1009.4 |
| 20260906003009 | 87 | 184 | 8.0 | 17.0 | 0.00 | 0.00 | 0.00 | 76 | 1009.2 |
| 20260906001507 | 88 | 162 | 7.0 | 18.0 | 0.00 | 0.00 | 0.00 | 76 | 1009.0 |
| 20260906000007 | 88 | 125 | 8.0 | 18.0 | 0.00 | 0.00 | 0.00 | 75 | 1008.7 |
| 20260905234507 | 89 | 130 | 10.0 | 18.0 | 0.00 | 0.00 | 0.00 | 72 | 1008.5 |
| 20260905233006 | 90 | 137 | 6.0 | 14.0 | 0.00 | 0.00 | 0.00 | 71 | 1008.5 |
| 20260905231506 | 90 | 156 | 7.0 | 19.0 | 0.00 | 0.00 | 0.00 | 69 | 1008.6 |
| 20260905230005 | 91 | 140 | 8.0 | 16.0 | 0.00 | 0.00 | 0.00 | 70 | 1008.7 |
| 20260905224504 | 91 | 149 | 10.0 | 17.0 | 0.00 | 0.00 | 0.00 | 66 | 1008.6 |
| 20260905223004 | 91 | 139 | 9.0 | 16.0 | 0.00 | 0.00 | 0.00 | 67 | 1008.4 |
| 20260905221502 | 92 | 175 | 8.0 | 15.0 | 0.00 | 0.00 | 0.00 | 67 | 1008.6 |
| 20260905220003 | 92 | 123 | 6.0 | 15.0 | 0.00 | 0.00 | 0.00 | 66 | 1008.5 |
| 20260905214501 | 92 | 104 | 8.0 | 15.0 | 0.00 | 0.00 | 0.00 | 64 | 1008.6 |
| 20260905213104 | 93 | 146 | 8.0 | 14.0 | 0.00 | 0.00 | 0.00 | 62 | 1008.7 |
| 20260905211558 | 93 | 174 | 7.0 | 17.0 | 0.00 | 0.00 | 0.00 | 62 | 1008.9 |
| 20260905210104 | 93 | 113 | 7.0 | 14.0 | 0.00 | 0.00 | 0.00 | 63 | 1009.1 |
| 20260905204554 | 93 | 150 | 5.0 | 16.0 | 0.00 | 0.00 | 0.00 | 62 | 1009.3 |
| 20260905203055 | 94 | 119 | 6.0 | 14.0 | 0.00 | 0.00 | 0.00 | 62 | 1009.4 |
| 20260905201551 | 94 | 136 | 4.0 | 16.0 | 0.00 | 0.00 | 0.00 | 64 | 1009.6 |
| 20260905200050 | 94 | 202 | 6.0 | 16.0 | 0.00 | 0.00 | 0.00 | 61 | 1009.8 |
| 20260905194549 | 94 | 153 | 6.0 | 13.0 | 0.00 | 0.00 | 0.00 | 62 | 1010.1 |
| 20260905193046 | 93 | 165 | 6.0 | 14.0 | 0.00 | 0.00 | 0.00 | 63 | 1010.3 |
| 20260905191546 | 93 | 181 | 5.0 | 16.0 | 0.00 | 0.00 | 0.00 | 65 | 1010.4 |
| 20260905190045 | 93 | 118 | 5.0 | 14.0 | 0.00 | 0.00 | 0.00 | 67 | 1010.6 |
| 20260905184553 | 94 | 93 | 4.0 | 13.0 | 0.00 | 0.00 | 0.00 | 65 | 1010.8 |
| 20260905183040 | 92 | 180 | 5.0 | 14.0 | 0.00 | 0.00 | 0.00 | 67 | 1010.9 |
| 20260905181539 | 92 | 105 | 6.0 | 12.0 | 0.00 | 0.00 | 0.00 | 68 | 1011.1 |
| 20260905180043 | 91 | 155 | 6.0 | 15.0 | 0.00 | 0.00 | 0.00 | 67 | 1011.1 |
| 20260905174539 | 92 | 128 | 6.0 | 14.0 | 0.00 | 0.00 | 0.00 | 64 | 1011.3 |
| 20260905173058 | 94 | 126 | 9.0 | 16.0 | 0.00 | 0.00 | 0.00 | 61 | 1011.4 |
| 20260905171535 | 94 | 142 | 4.0 | 17.0 | 0.00 | 0.00 | 0.00 | 63 | 1011.5 |
| 20260905170033 | 94 | 142 | 9.0 | 18.0 | 0.00 | 0.00 | 0.00 | 60 | 1011.7 |
| 20260905164532 | 93 | 161 | 9.0 | 15.0 | 0.00 | 0.00 | 0.00 | 63 | 1011.7 |
| 20260905163030 | 93 | 126 | 7.0 | 18.0 | 0.00 | 0.00 | 0.00 | 62 | 1011.9 |
| 20260905161529 | 94 | 176 | 7.0 | 14.0 | 0.00 | 0.00 | 0.00 | 62 | 1011.9 |
| 20260905160025 | 93 | 201 | 8.0 | 16.0 | 0.00 | 0.00 | 0.00 | 63 | 1011.8 |
| 20260905154521 | 92 | 151 | 4.0 | 12.0 | 0.00 | 0.00 | 0.00 | 65 | 1011.9 |
| 20260905153020 | 91 | 167 | 6.0 | 10.0 | 0.00 | 0.00 | 0.00 | 68 | 1011.9 |
| 20260905151519 | 90 | 149 | 4.0 | 11.0 | 0.00 | 0.00 | 0.00 | 68 | 1012.0 |
| 20260905150010 | 89 | 206 | 4.0 | 10.0 | 0.00 | 0.00 | 0.00 | 70 | 1011.8 |
| 20260905144521 | 89 | 211 | 4.0 | 10.0 | 0.00 | 0.00 | 0.00 | 70 | 1011.9 |
| 20260905143006 | 89 | 178 | 6.0 | 12.0 | 0.00 | 0.00 | 0.00 | 72 | 1011.8 |
| 20260905141502 | 88 | 186 | 5.0 | 10.0 | 0.00 | 0.00 | 0.00 | 75 | 1011.7 |
| 20260905140100 | 87 | 156 | 2.0 | 7.0 | 0.00 | 0.00 | 0.00 | 78 | 1011.6 |
| 20260905134557 | 86 | 198 | 3.0 | 8.0 | 0.00 | 0.00 | 0.00 | 80 | 1011.3 |
| 20260905133101 | 84 | 145 | 0.0 | 5.0 | 0.00 | 0.00 | 0.00 | 84 | 1011.2 |
| 20260905131553 | 83 | 177 | 3.0 | 6.0 | 0.00 | 0.00 | 0.00 | 86 | 1011.1 |
| 20260905130049 | 82 | 130 | 0.0 | 0.0 | 0.00 | 0.00 | 0.00 | 87 | 1010.8 |
| 20260905124550 | 81 | 153 | 0.0 | 0.0 | 0.00 | 0.00 | 0.00 | 87 | 1010.6 |
| 20260905123102 | 81 | 153 | 0.0 | 0.0 | 0.00 | 0.00 | 0.00 | 87 | 1010.5 |
| 20260905121553 | 81 | 153 | 0.0 | 0.0 | 0.00 | 0.00 | 0.00 | 87 | 1010.4 |
| 20260905120046 | 81 | 153 | 0.0 | 0.0 | 0.00 | 0.00 | 0.00 | 87 | 1010.3 |
| 20260905114544 | 81 | 153 | 0.0 | 0.0 | 0.00 | 0.00 | 0.00 | 86 | 1010.4 |
| 20260905113044 | 81 | 153 | 0.0 | 0.0 | 0.00 | 0.00 | 0.00 | 87 | 1010.2 |
| 20260905111543 | 82 | 153 | 0.0 | 0.0 | 0.00 | 0.00 | 0.00 | 86 | 1010.3 |
| 20260905110043 | 82 | 153 | 0.0 | 0.0 | 0.00 | 0.00 | 0.00 | 86 | 1010.3 |
| 20260905104545 | 82 | 153 | 0.0 | 0.0 | 0.00 | 0.00 | 0.00 | 86 | 1010.2 |
| 20260905103042 | 82 | 153 | 0.0 | 0.0 | 0.00 | 0.00 | 0.00 | 86 | 1010.2 |
| 20260905101554 | 82 | 211 | 0.0 | 0.0 | 0.00 | 0.00 | 0.00 | 86 | 1010.1 |
| 20260905100111 | 82 | 211 | 0.0 | 0.0 | 0.00 | 0.00 | 0.00 | 86 | 1010.2 |
| 20260905094547 | 82 | 207 | 0.0 | 0.0 | 0.00 | 0.00 | 0.00 | 86 | 1010.1 |
| 20260905093038 | 82 | 217 | 0.0 | 0.0 | 0.00 | 0.00 | 0.00 | 86 | 1010.1 |
| 20260905091550 | 83 | 195 | 0.0 | 0.0 | 0.00 | 0.00 | 0.00 | 85 | 1010.2 |
| 20260905090035 | 83 | 209 | 0.0 | 2.0 | 0.00 | 0.00 | 0.00 | 85 | 1010.2 |
| 20260905084540 | 83 | 200 | 1.0 | 4.0 | 0.00 | 0.00 | 0.00 | 85 | 1010.2 |
| 20260905083040 | 83 | 205 | 0.0 | 5.0 | 0.00 | 0.00 | 0.00 | 84 | 1010.2 |